Location: Buckland
(65.9785°N, 161.1281°W)
Time: 02:55:46
(UTC+00:00)

Transit 4A - Pass Details

Date: 04 December 2020
Orbit: 864 x 980 km, 66.8° (Epoch: 26 January)

Event Time Altitude Azimuth Distance (km) Brightness Sun altitude
Rises 20:46:09 0° 254° (WSW) 3,679 10.9 -0.7°
Reaches altitude 10° 20:48:43 10° 255° (WSW) 2,737 10.3 -0.6°
Maximum altitude 20:55:10 88° 344° (NNW) 990 8.2 -0.4°
Drops below altitude 10° 21:01:36 10° 77° (ENE) 2,725 10.5 -0.1°
Sets 21:04:09 0° 78° (ENE) 3,663 11.1 0.0°
